Home   Weather   Sodankylä   Past weeks

Flag for Finland Past Weather in Sodankylä, Finland — Yesterday and Last 2 Weeks

Now
23 °F

Clear.


Feels Like: 16 °F
Forecast: 11 / 21 °F
Wind: 6 mph from West

Location: Kittila

Current Time: Dec 7, 2016 at 8:22:43 pm

Latest Report: Dec 7, 2016 at 7:50 pm


Visibility: 10 mi

Pressure: 29.45 "Hg

Humidity: 93%

Dew Point: 21 °F

Location of SodankyläLocation

Past Weather in Sodankylä — Graph

°F

Sodankylä Temperature Yesterday

Maximum temperature yesterday: 21 °F (at 11:20 pm)
Minimum temperature yesterday: -18 °F (at 8:20 am)
Average temperature yesterday: -5 °F

High & Low Weather Summary for the Past Weeks

 TemperatureHumidityPressure
High30 °F (Nov 22, 9:50 pm)100% (Nov 22, 7:20 pm)30.04 "Hg (Nov 22, 7:20 pm)
Low-18 °F (Dec 4, 2:20 am)74% (Dec 7, 8:50 am)29.06 "Hg (Nov 30, 5:50 am)
Average14 °F89%29.63 "Hg
* Reported Nov 22 7:20 pm — Dec 7 7:20 pm, Sodankylä, Weather by CustomWeather, © 2016

Note: Actual official high and low records may vary slightly from our data, if they occured in-between our weather recording intervals... More about our weather records

Advertising

Sodankylä Weather History for the Previous 24 Hours

Scroll right to see more
 ConditionsComfort  
Time TempWeatherWind HumidityBarometerVisibility
7:20 pm
Wed, Dec 7
21 °FPassing clouds.5 mph93%29.45 "HgN/A
6:50 pm25 °FClear.No wind86%29.45 "Hg10 mi
6:20 pm19 °FClear.3 mph93%29.45 "Hg10 mi
5:50 pm21 °FClear.No wind86%29.47 "Hg10 mi
5:20 pm23 °FClear.1 mph86%29.47 "Hg10 mi
4:50 pm23 °FClear.2 mph93%29.47 "Hg10 mi
4:20 pm25 °FPassing clouds.5 mph86%29.47 "HgN/A
3:50 pm25 °FPassing clouds.5 mph86%29.47 "HgN/A
3:20 pm25 °FPassing clouds.5 mph86%29.47 "HgN/A
2:50 pm25 °FClear.10 mph86%29.47 "Hg10 mi
2:20 pm25 °FPassing clouds.10 mph86%29.47 "HgN/A
1:50 pm25 °FPassing clouds.12 mph86%29.45 "HgN/A
1:20 pm25 °FPassing clouds.10 mph86%29.45 "HgN/A
12:50 pm25 °FPassing clouds.9 mph86%29.47 "HgN/A
12:20 pm27 °FPassing clouds.12 mph86%29.45 "HgN/A
11:50 am27 °FSunny.12 mph86%29.45 "Hg10 mi
11:20 am27 °FClear.13 mph80%29.45 "Hg10 mi
10:50 am25 °FClear.12 mph86%29.45 "Hg10 mi
10:20 am27 °FPassing clouds.10 mph80%29.45 "HgN/A
9:50 am27 °FPassing clouds.10 mph80%29.45 "HgN/A
9:20 am25 °FLight mixture of precip. Clear.3 mph86%29.45 "HgN/A
8:50 am28 °FPassing clouds.9 mph74%29.42 "HgN/A
8:20 am30 °FClear.17 mph75%29.42 "Hg10 mi
7:50 am30 °FClear.13 mph75%29.42 "Hg10 mi
7:20 am30 °FPassing clouds.8 mph75%29.45 "HgN/A
6:50 am30 °FPassing clouds.12 mph75%29.42 "HgN/A
6:20 am28 °FPassing clouds.10 mph80%29.42 "HgN/A
5:50 am27 °FPassing clouds.12 mph86%29.42 "HgN/A
5:20 am28 °FPassing clouds.6 mph80%29.42 "HgN/A
4:50 am28 °FPassing clouds.9 mph80%29.42 "HgN/A
4:20 am23 °FClear.1 mph100%29.42 "Hg10 mi
3:50 am19 °FClear.2 mph93%29.42 "Hg10 mi
3:20 am25 °FPassing clouds.7 mph93%29.42 "HgN/A
2:50 am21 °FClear.3 mph93%29.42 "Hg10 mi
2:20 am25 °FPassing clouds.6 mph93%29.42 "HgN/A
1:50 am25 °FPassing clouds.3 mph93%29.42 "HgN/A
1:20 am23 °FPassing clouds.5 mph93%29.45 "HgN/A
12:50 am23 °FPassing clouds.9 mph93%29.45 "HgN/A
12:20 am23 °FPassing clouds.5 mph93%29.45 "HgN/A
11:50 pm
Tue, Dec 6
21 °FPassing clouds.15 mph93%29.45 "HgN/A
11:20 pm21 °FLight snow. Passing clouds.14 mph93%29.47 "HgN/A
10:50 pm19 °FSnow. Overcast.15 mph93%29.50 "Hg2 mi
10:20 pm16 °FSnow. Overcast.6 mph86%29.53 "Hg1 mi
9:50 pm12 °FSnow. Overcast.7 mph85%29.56 "Hg1 mi
9:20 pm10 °FSnow. Overcast.6 mph92%29.59 "Hg1 mi
8:50 pm9 °FSnow. Overcast.8 mph85%29.62 "Hg1 mi
Weather by CustomWeather, © 2016

See weather overviewHow to use our weather pages